Regional Weather Roundup
Issued by NWS

Home | Current Version | Previous Version | Text Only | Print | Product List | Glossary Off
Versions: 1 2 3 4 5 6 7 8 9 10 11 12 13 14 15 16 17 18 19 20 21 22 23 24 25 26 27 28

000
ASUS45 KSLC 192310
RWRUT

UTAH REGIONAL WEATHER ROUNDUP
NATIONAL WEATHER SERVICE SALT LAKE CITY UT
400 PM MST MON FEB 19 2018

UTZ001>011-023>025-200000-

NORTHERN UTAH

CITY           SKY/WX    TMP DP  RH WIND       PRES   REMARKS
BRIGHAM CITY   CLOUDY    27  15  59 N16       29.63R WCI  15
HILL AFB       FLURRIES  24  15  69 N6        29.60R WCI  17
LOGAN          CLOUDY    27  13  55 N12       29.62R WCI  17
OGDEN          CLOUDY    26  13  57 NW12      29.60R WCI  16
SALT LAKE CITY CLOUDY    30  17  58 N15       29.62R WCI  19
TOOELE VALLEY  MIX PCPN  27  21  80 N9        29.65R WCI  17
WENDOVER       PTSUNNY   32   7  35 NW17G26   29.66R WCI  21
HEBER CITY       N/A     27  18  69 CALM      29.49R
WEST JORDAN    CLOUDY    25  17  72 NW13      29.62R WCI  13

$$

UTZ011>015-024>027-200000-

CENTRAL/NORTHEAST UTAH

CITY           SKY/WX    TMP DP  RH WIND       PRES   REMARKS
PROVO AIRPORT  FLURRIES  25  18  74 NW24G31   29.60R WCI   9
MOAB/CANYONLAN PTSUNNY  N/A N/A N/A S12       29.38F
DELTA          CLOUDY    27  18  69 NW13      29.61R WCI  16
PRICE          MOSUNNY   31   8  38 N17G29    29.40R WCI  19
RICHFIELD      CLOUDY    27  19  74 NE9       29.55R WCI  17
ROOSEVELT      CLOUDY    27  19  74 E13       29.43R WCI  16
VERNAL         CLOUDY    17   8  67 E16G26    29.44R WCI   2

$$

UTZ013>016-019>022-027-200000-

SOUTHERN UTAH

CITY           SKY/WX    TMP DP  RH WIND       PRES   REMARKS
BRYCE CANYON   CLOUDY    20  10  65 W13       29.47R WCI   7
CEDAR CITY     CLOUDY    27  18  69 S10       29.54R WCI  17
MILFORD        LGT SNOW  23  18  81 N15       29.61R WCI  10
ST GEORGE      MOCLDY    44   8  23 W10       29.63S
HANKSVILLE     PTSUNNY   41   9  26 NW16G24   29.44R
KANAB          PTSUNNY   36  10  35 SW16G23   29.62R WCI  26
BLANDING         N/A     31  19  62 SW15G25   29.57R WCI  20

$$

REGIONAL REPORTS     COLORADO/ARIZONA

CITY           SKY/WX    TMP DP  RH WIND       PRES   REMARKS
CRAIG, CO      SNOW       8   2  76 W10       29.49F VSB 1/2 WCI  -6
GRAND JUNCTION CLOUDY    35  27  72 W17G30    29.43R WCI  25
RIFLE, CO      MIX PCPN  31  30  96 W17       29.37R VSB 1/2 WCI  19
MONTROSE, CO   LGT SNOW  36  31  82 NW14G30   29.40R WCI  27
CORTEZ, CO     SNOW      31  30  96 W14G24    29.50R VSB 1/2 WCI  21
COLORADO CITY  MOCLDY    36  18  48 W12G21    29.62S WCI  27
PAGE, AZ       MOSUNNY   39  15  37 W10G28    29.53R WCI  32
GRAND CANYON   CLOUDY    27   8  44 SW25G33   29.57R WCI  12
KINGMAN, AZ    CLOUDY    41  14  33 W9G25     29.70R
FLAGSTAFF, AZ  LGT SNOW  26  20  77 SW21G36   29.56R WCI  12

$$

REGIONAL REPORTS    NEVADA/IDAHO/WYOMING

CITY           SKY/WX    TMP DP  RH WIND       PRES   REMARKS
LAS VEGAS, NV  PTSUNNY   50  -1  12 NW18G29   29.70R
ELY, NY        LGT SNOW  19  11  70 N16       29.62R WCI   4
ELKO, NV       MOSUNNY   24  11  57 NW17      29.70R WCI  11
POCATELLO, ID  MOSUNNY   26   7  44 SW6       29.65R WCI  19
BURLEY, ID     MOSUNNY   26  16  65 W13G24    29.65R WCI  15
EVANSTON, WY   LGT SNOW  12   9  87 S6        29.48R FOG     WCI   3
ROCK SPRINGS,  LGT SNOW   1  -7  68 NE21      29.53R WCI -21

$$




USA.gov is the U.S. government's official web portal to all federal, state and local government web resources and services.